Weather History for Fairfield, CA

Change the Weather History Date:

Friday, April 19, 2013

  Actual Average Record
Temperature  
Mean Temperature 62 °F -  
Max Temperature 82 °F 69 °F 86 °F (2009)
Min Temperature 43 °F 45 °F 40 °F (2007)
Degree Days  
Heating Degree Days 3    
Growing Degree Days 12 (Base 50)    
Moisture  
Dew Point 49 °F    
Average Humidity 66    
Maximum Humidity 99    
Minimum Humidity 29    
Precipitation  
Precipitation 0.00 in - - ()
Sea Level Pressure  
Sea Level Pressure 30.15 in    
Wind  
Wind Speed 6 mph (SW)    
Max Wind Speed 13 mph    
Max Gust Speed -    
Visibility 10 miles    
Events      
Averages and records for this station are not official NWS values.
T = Trace of Precipitation, MM = Missing Value Source: NWS Daily Summary

Daily Weather History Graph

Daily Weather History Graph

Search for Another Location

Airport:

Trip Planner

Search our weather history database for the weather conditions in past years. The results will help you decide how hot, cold, wet, or windy it might be!

Date:

Astronomy

Apr. 19, 2013 Rise Set
Actual Time 6:26 AM PDT 7:48 PM PDT
Civil Twilight 5:58 AM PDT 8:15 PM PDT
Nautical Twilight 5:25 AM PDT 8:49 PM PDT
Astronomical Twilight 4:50 AM PDT 9:23 PM PDT
Moon 1:43 PM PDT (4/19) 2:39 AM PDT (4/19)
Length of Visible Light 14h 17m
Length of Day
13h 22m
Waxing Gibbous, 62% of the Moon is Illuminated
Apr 19
Waxing Gibbous
Apr 25
Full
May 2
Last Quarter
May 9
New
May 17
First Quarter

Hourly Weather History & Observations

Time (PDT) Temp. Windchill Dew Point Humidity Pressure Visibility Wind Dir Wind Speed Gust Speed Precip Events Conditions
12:58 AM 52.9 °F - 46.6 °F 79% 30.19 in 10.0 mi WSW 9.2 mph - N/A   Clear
1:58 AM 51.8 °F - 48.0 °F 87% 30.18 in 10.0 mi WSW 9.2 mph - N/A   Clear
2:58 AM 50.5 °F - 49.5 °F 96% 30.18 in 10.0 mi SW 8.1 mph - N/A   Clear
3:58 AM 50.2 °F - 50.0 °F 99% 30.18 in 10.0 mi SW 5.8 mph - N/A   Clear
4:58 AM 43.9 °F - 43.5 °F 99% 30.20 in 10.0 mi West 2.3 mph - N/A   Clear
5:58 AM 45.1 °F - 44.8 °F 99% 30.20 in 10.0 mi Calm Calm - N/A   Clear
6:58 AM 45.3 °F 42.3 °F 45.1 °F 99% 30.21 in 10.0 mi SW 5.8 mph - N/A   Clear
7:58 AM 52.7 °F - 51.1 °F 94% 30.23 in 10.0 mi SW 5.8 mph - N/A   Clear
8:58 AM 59.7 °F - 50.5 °F 72% 30.23 in 10.0 mi WSW 6.9 mph - N/A   Clear
9:58 AM 65.7 °F - 48.7 °F 54% 30.23 in 10.0 mi WSW 6.9 mph - N/A   Partly Cloudy
10:58 AM 69.3 °F - 46.6 °F 44% 30.24 in 7.0 mi Calm Calm - N/A   Clear
11:58 AM 72.3 °F - 46.6 °F 40% 30.22 in 10.0 mi Variable 3.5 mph - N/A   Clear
12:58 PM 76.3 °F - 47.1 °F 36% 30.20 in 7.0 mi Variable 2.3 mph - N/A   Clear
1:58 PM 77.4 °F - 45.7 °F 32% 30.17 in 9.0 mi Variable 3.5 mph - N/A   Clear
2:58 PM 79.7 °F - 45.1 °F 29% 30.13 in 10.0 mi Variable 2.3 mph - N/A   Clear
3:58 PM 81.7 °F - 48.0 °F 31% 30.11 in 10.0 mi Variable 4.6 mph - N/A   Clear
4:58 PM 81.9 °F - 47.1 °F 30% 30.08 in 10.0 mi WSW 9.2 mph - N/A   Clear
5:58 PM 79.0 °F - 51.4 °F 38% 30.07 in 10.0 mi WSW 12.7 mph - N/A   Clear
6:58 PM 75.7 °F - 50.4 °F 41% 30.06 in 10.0 mi WSW 10.4 mph - N/A   Clear
7:58 PM 68.5 °F - 53.2 °F 58% 30.04 in 10.0 mi SW 8.1 mph - N/A   Clear
8:58 PM 64.4 °F - 53.8 °F 68% 30.05 in 10.0 mi WSW 3.5 mph - N/A   Clear
9:58 PM 61.0 °F - 54.5 °F 79% 30.05 in 10.0 mi South 5.8 mph - N/A   Clear
10:58 PM 58.5 °F - 53.6 °F 84% 30.06 in 10.0 mi Variable 2.3 mph - N/A   Clear
11:58 PM 58.1 °F - 53.8 °F 86% 30.07 in 10.0 mi Variable 1.2 mph - N/A   Clear